Simultaneous Nadir Overpasses (SNOs) Predictions

Prediction of SNOs between GOES-16 and METOP-C Satellite Orbit:

Table of predicted SNOs for the next 14.0 days since TLE Epoch: 10/18/2019
Index Date Time (GOES-16) GOES-16 Lat,Lon METOP-C Lat,Lon Distance(km) Time Diff (sec)
1 10/19/2019 02:33:06 0.02, -75.19 -0.01, -75.26 7.96 80
2 10/21/2019 14:31:18 0.02, -75.21 -0.06, -74.82 44.50 80
3 10/23/2019 02:50:17 -0.03, -75.20 -0.97, -79.41 480.37 80
4 10/24/2019 02:26:58 -0.03, -75.20 0.15, -74.42 89.27 80
5 10/25/2019 14:45:50 0.03, -75.23 0.85, -78.99 427.92 80
6 10/26/2019 14:27:51 0.02, -75.24 -0.28, -74.00 142.04 80
7 10/28/2019 02:44:10 -0.01, -75.24 -0.75, -78.59 381.89 80
8 10/29/2019 02:26:10 -0.01, -75.25 0.37, -73.60 188.53 80
9 10/30/2019 14:42:23 0.01, -75.28 0.63, -78.16 327.72 80
10 10/31/2019 14:24:22 0.02, -75.30 -0.43, -73.16 243.09 80




NCC Satellite Simultaneous Nadir Overpasses (SNOs) Prediction Service
